Time,TemperatureF,DewpointF,PressureIn,WindDirection,WindDirectionDegrees,WindSpeedMPH,WindSpeedGustMPH,Humidity,HourlyPrecipIn,Conditions,Clouds,dailyrainin,SoftwareType,DateUTC
2013-02-17 00:00:00,50.4,45.4,30.08,WNW,298,0.0,0.0,83,0.00,,---,0.01,VWS V14.00,2013-02-17 05:00:00,
2013-02-17 00:05:00,50.3,45.3,30.08,WNW,298,0.0,0.0,83,0.00,,---,0.00,VWS V14.00,2013-02-17 05:05:00,
2013-02-17 00:10:00,50.3,45.3,30.08,WNW,298,2.0,2.0,83,0.00,,---,0.00,VWS V14.00,2013-02-17 05:10:00,
2013-02-17 00:15:00,50.3,45.0,30.09,WNW,298,0.0,1.0,82,0.00,,---,0.00,VWS V14.00,2013-02-17 05:15:00,
2013-02-17 00:20:00,50.4,45.1,30.09,WNW,298,0.0,0.0,82,0.00,,---,0.00,VWS V14.00,2013-02-17 05:20:00,
2013-02-17 00:25:00,50.4,44.8,30.09,WNW,298,0.0,0.0,81,0.00,,---,0.00,VWS V14.00,2013-02-17 05:25:00,
2013-02-17 00:30:00,50.4,44.8,30.09,WNW,298,0.0,0.0,81,0.00,,---,0.00,VWS V14.00,2013-02-17 05:30:00,
2013-02-17 00:35:00,50.4,44.8,30.09,WNW,298,0.0,0.0,81,0.00,,---,0.00,VWS V14.00,2013-02-17 05:35:00,
2013-02-17 00:40:00,50.4,44.8,30.09,WNW,298,0.0,2.0,81,0.00,,---,0.00,VWS V14.00,2013-02-17 05:40:00,
2013-02-17 00:45:00,50.5,44.6,30.09,WNW,297,0.0,5.0,80,0.00,,---,0.00,VWS V14.00,2013-02-17 05:45:00,
2013-02-17 00:50:00,50.6,44.3,30.10,WNW,298,0.0,5.0,79,0.00,,---,0.00,VWS V14.00,2013-02-17 05:50:00,
2013-02-17 00:55:00,50.7,44.1,30.09,WNW,299,0.0,4.0,78,0.00,,---,0.00,VWS V14.00,2013-02-17 05:55:00,
2013-02-17 01:00:00,50.9,44.0,30.10,NW,306,0.0,5.0,77,0.00,,---,0.00,VWS V14.00,2013-02-17 06:00:00,
2013-02-17 01:05:00,51.0,43.7,30.10,NW,313,4.0,6.0,76,0.00,,---,0.00,VWS V14.00,2013-02-17 06:05:00,
2013-02-17 01:10:00,51.2,43.6,30.11,NW,311,0.0,2.0,75,0.00,,---,0.00,VWS V14.00,2013-02-17 06:10:00,
2013-02-17 01:15:00,51.2,43.2,30.11,NW,312,0.0,0.0,74,0.00,,---,0.00,VWS V14.00,2013-02-17 06:15:00,
2013-02-17 01:20:00,51.2,43.2,30.11,NW,308,0.0,7.0,74,0.00,,---,0.00,VWS V14.00,2013-02-17 06:20:00,
2013-02-17 01:25:00,51.2,42.9,30.11,WNW,298,0.0,7.0,73,0.00,,---,0.00,VWS V14.00,2013-02-17 06:25:00,
2013-02-17 01:30:00,51.1,42.8,30.11,NNW,329,0.0,7.0,73,0.00,,---,0.00,VWS V14.00,2013-02-17 06:30:00,
2013-02-17 01:35:00,51.0,42.7,30.11,NNW,328,1.0,4.0,73,0.00,,---,0.00,VWS V14.00,2013-02-17 06:35:00,
2013-02-17 01:40:00,50.9,42.6,30.11,NW,315,2.0,9.0,73,0.00,,---,0.00,VWS V14.00,2013-02-17 06:40:00,
2013-02-17 01:45:00,50.8,42.5,30.11,NW,316,5.0,5.0,73,0.00,,---,0.00,VWS V14.00,2013-02-17 06:45:00,
2013-02-17 01:50:00,50.6,41.9,30.10,NW,304,1.0,8.0,72,0.00,,---,0.00,VWS V14.00,2013-02-17 06:50:00,
2013-02-17 01:55:00,50.5,41.8,30.10,NNW,330,5.0,8.0,72,0.00,,---,0.00,VWS V14.00,2013-02-17 06:55:00,
2013-02-17 02:00:00,50.6,41.6,30.10,NW,318,5.0,12.0,71,0.00,,---,0.00,VWS V14.00,2013-02-17 07:00:00,
2013-02-17 02:05:00,50.6,41.6,30.10,NW,320,1.0,10.0,71,0.00,,---,0.00,VWS V14.00,2013-02-17 07:05:00,
2013-02-17 02:10:00,50.5,41.1,30.10,NNW,329,0.0,4.0,70,0.00,,---,0.00,VWS V14.00,2013-02-17 07:10:00,
2013-02-17 02:15:00,50.5,40.7,30.11,NW,306,0.0,7.0,69,0.00,,---,0.00,VWS V14.00,2013-02-17 07:15:00,
2013-02-17 02:20:00,50.4,40.6,30.11,NNW,335,1.0,9.0,69,0.00,,---,0.00,VWS V14.00,2013-02-17 07:20:00,
2013-02-17 02:25:00,50.3,40.5,30.12,NW,321,1.0,8.0,69,0.00,,---,0.00,VWS V14.00,2013-02-17 07:25:00,
2013-02-17 02:30:00,50.1,40.3,30.12,North,355,4.0,10.0,69,0.00,,---,0.00,VWS V14.00,2013-02-17 07:30:00,
2013-02-17 02:35:00,49.9,39.8,30.12,NNW,342,7.0,9.0,68,0.00,,---,0.00,VWS V14.00,2013-02-17 07:35:00,
2013-02-17 02:40:00,49.7,38.8,30.12,NNW,328,8.0,12.0,66,0.00,,---,0.00,VWS V14.00,2013-02-17 07:40:00,
2013-02-17 02:45:00,49.6,37.9,30.12,NW,323,6.0,15.0,64,0.00,,---,0.00,VWS V14.00,2013-02-17 07:45:00,
2013-02-17 02:50:00,49.4,37.8,30.12,NW,323,4.0,12.0,64,0.00,,---,0.00,VWS V14.00,2013-02-17 07:50:00,
2013-02-17 02:55:00,49.1,37.5,30.12,NNW,336,4.0,11.0,64,0.00,,---,0.00,VWS V14.00,2013-02-17 07:55:00,
2013-02-17 03:00:00,48.8,36.8,30.12,North,349,6.0,12.0,63,0.00,,---,0.00,VWS V14.00,2013-02-17 08:00:00,
2013-02-17 03:05:00,48.5,36.5,30.13,NW,321,5.0,8.0,63,0.00,,---,0.00,VWS V14.00,2013-02-17 08:05:00,
2013-02-17 03:10:00,48.2,35.0,30.13,NNW,342,6.0,15.0,60,0.00,,---,0.00,VWS V14.00,2013-02-17 08:10:00,
2013-02-17 03:15:00,47.9,33.8,30.13,NNE,23,8.0,14.0,58,0.00,,---,0.00,VWS V14.00,2013-02-17 08:15:00,
2013-02-17 03:20:00,47.8,33.8,30.13,NW,320,5.0,12.0,58,0.00,,---,0.00,VWS V14.00,2013-02-17 08:20:00,
2013-02-17 03:25:00,47.4,33.0,30.14,NNW,327,3.0,12.0,57,0.00,,---,0.00,VWS V14.00,2013-02-17 08:25:00,
2013-02-17 03:30:00,47.2,32.8,30.13,NNW,336,7.0,11.0,57,0.00,,---,0.00,VWS V14.00,2013-02-17 08:30:00,
2013-02-17 03:35:00,47.0,32.6,30.14,North,360,0.0,9.0,57,0.00,,---,0.00,VWS V14.00,2013-02-17 08:35:00,
2013-02-17 03:40:00,46.9,32.5,30.14,North,351,3.0,10.0,57,0.00,,---,0.00,VWS V14.00,2013-02-17 08:40:00,
2013-02-17 03:45:00,46.7,31.9,30.14,NW,325,5.0,11.0,56,0.00,,---,0.00,VWS V14.00,2013-02-17 08:45:00,
2013-02-17 03:50:00,46.5,32.1,30.14,NNW,338,3.0,11.0,57,0.00,,---,0.00,VWS V14.00,2013-02-17 08:50:00,
2013-02-17 03:55:00,46.3,31.9,30.15,NNW,342,2.0,9.0,57,0.00,,---,0.00,VWS V14.00,2013-02-17 08:55:00,
2013-02-17 04:00:00,46.1,31.3,30.15,NNW,338,9.0,18.0,56,0.00,,---,0.00,VWS V14.00,2013-02-17 09:00:00,
2013-02-17 04:05:00,45.9,31.1,30.15,North,5,1.0,10.0,56,0.00,,---,0.00,VWS V14.00,2013-02-17 09:05:00,
2013-02-17 04:10:00,45.6,30.8,30.15,NNW,332,3.0,8.0,56,0.00,,---,0.00,VWS V14.00,2013-02-17 09:10:00,
2013-02-17 04:15:00,45.3,30.5,30.15,NNW,343,2.0,9.0,56,0.00,,---,0.00,VWS V14.00,2013-02-17 09:15:00,
2013-02-17 04:20:00,45.1,29.9,30.15,NNW,329,3.0,10.0,55,0.00,,---,0.00,VWS V14.00,2013-02-17 09:20:00,
2013-02-17 04:25:00,44.9,29.7,30.15,North,9,0.0,7.0,55,0.00,,---,0.00,VWS V14.00,2013-02-17 09:25:00,
2013-02-17 04:30:00,44.7,29.5,30.16,NNW,347,1.0,5.0,55,0.00,,---,0.00,VWS V14.00,2013-02-17 09:30:00,
2013-02-17 04:35:00,44.5,29.4,30.16,NNW,338,8.0,8.0,55,0.00,,---,0.00,VWS V14.00,2013-02-17 09:35:00,
2013-02-17 04:40:00,44.3,29.2,30.16,NNW,329,2.0,10.0,55,0.00,,---,0.00,VWS V14.00,2013-02-17 09:40:00,
2013-02-17 04:45:00,44.2,29.5,30.16,North,9,5.0,8.0,56,0.00,,---,0.00,VWS V14.00,2013-02-17 09:45:00,
2013-02-17 04:50:00,43.9,29.2,30.16,NNE,15,8.0,8.0,56,0.00,,---,0.00,VWS V14.00,2013-02-17 09:50:00,
2013-02-17 04:55:00,43.6,29.4,30.16,North,350,5.0,7.0,57,0.00,,---,0.00,VWS V14.00,2013-02-17 09:55:00,
2013-02-17 05:00:00,43.5,28.4,30.17,North,349,3.0,9.0,55,0.00,,---,0.00,VWS V14.00,2013-02-17 10:00:00,
2013-02-17 05:05:00,43.3,28.2,30.17,NNW,330,5.0,7.0,55,0.00,,---,0.00,VWS V14.00,2013-02-17 10:05:00,
2013-02-17 05:10:00,43.2,27.2,30.17,NNW,332,5.0,9.0,53,0.00,,---,0.00,VWS V14.00,2013-02-17 10:10:00,
2013-02-17 05:15:00,43.1,27.1,30.17,NNW,339,0.0,8.0,53,0.00,,---,0.00,VWS V14.00,2013-02-17 10:15:00,
2013-02-17 05:20:00,43.0,27.0,30.18,NW,321,5.0,10.0,53,0.00,,---,0.00,VWS V14.00,2013-02-17 10:20:00,
2013-02-17 05:25:00,42.9,26.0,30.18,NNW,333,2.0,14.0,51,0.00,,---,0.00,VWS V14.00,2013-02-17 10:25:00,
2013-02-17 05:30:00,42.8,25.5,30.18,NNE,14,4.0,8.0,50,0.00,,---,0.00,VWS V14.00,2013-02-17 10:30:00,
2013-02-17 05:35:00,42.7,25.4,30.19,NW,326,4.0,8.0,50,0.00,,---,0.00,VWS V14.00,2013-02-17 10:35:00,
2013-02-17 05:40:00,42.6,24.8,30.19,NNE,23,8.0,9.0,49,0.00,,---,0.00,VWS V14.00,2013-02-17 10:40:00,
2013-02-17 05:45:00,42.5,25.2,30.19,NNW,331,1.0,9.0,50,0.00,,---,0.00,VWS V14.00,2013-02-17 10:45:00,
2013-02-17 05:50:00,42.3,25.0,30.19,NW,321,4.0,8.0,50,0.00,,---,0.00,VWS V14.00,2013-02-17 10:50:00,
2013-02-17 05:55:00,42.2,24.9,30.20,North,360,0.0,8.0,50,0.00,,---,0.00,VWS V14.00,2013-02-17 10:55:00,
2013-02-17 06:00:00,42.0,25.2,30.20,NNW,333,1.0,8.0,51,0.00,,---,0.00,VWS V14.00,2013-02-17 11:00:00,
2013-02-17 06:05:00,41.8,25.0,30.20,NNW,346,4.0,7.0,51,0.00,,---,0.00,VWS V14.00,2013-02-17 11:05:00,
2013-02-17 06:10:00,41.6,25.3,30.20,NNW,333,1.0,7.0,52,0.00,,---,0.00,VWS V14.00,2013-02-17 11:10:00,
2013-02-17 06:15:00,41.4,25.1,30.20,North,355,8.0,8.0,52,0.00,,---,0.00,VWS V14.00,2013-02-17 11:15:00,
2013-02-17 06:20:00,41.3,25.0,30.21,North,351,2.0,6.0,52,0.00,,---,0.00,VWS V14.00,2013-02-17 11:20:00,
2013-02-17 06:25:00,41.1,25.3,30.21,NNW,340,0.0,5.0,53,0.00,,---,0.00,VWS V14.00,2013-02-17 11:25:00,
2013-02-17 06:30:00,40.9,25.1,30.21,NNW,343,0.0,5.0,53,0.00,,---,0.00,VWS V14.00,2013-02-17 11:30:00,
2013-02-17 06:35:00,40.7,25.4,30.21,NNW,341,1.0,6.0,54,0.00,,---,0.00,VWS V14.00,2013-02-17 11:35:00,
2013-02-17 06:40:00,40.6,25.3,30.21,North,350,1.0,6.0,54,0.00,,---,0.00,VWS V14.00,2013-02-17 11:40:00,
2013-02-17 06:45:00,40.4,25.5,30.21,North,350,0.0,4.0,55,0.00,,---,0.00,VWS V14.00,2013-02-17 11:45:00,
2013-02-17 06:50:00,40.2,25.3,30.22,NNW,348,0.0,5.0,55,0.00,,---,0.00,VWS V14.00,2013-02-17 11:50:00,
2013-02-17 06:55:00,40.0,25.1,30.22,NNW,348,0.0,1.0,55,0.00,,---,0.00,VWS V14.00,2013-02-17 11:55:00,
2013-02-17 07:00:00,39.9,25.1,30.22,NNW,348,0.0,0.0,55,0.00,,---,0.00,VWS V14.00,2013-02-17 12:00:00,
2013-02-17 07:05:00,39.8,25.4,30.22,NNW,348,0.0,0.0,56,0.00,,---,0.00,VWS V14.00,2013-02-17 12:05:00,
2013-02-17 07:10:00,39.7,24.9,30.22,North,5,4.0,8.0,55,0.00,,---,0.00,VWS V14.00,2013-02-17 12:10:00,
2013-02-17 07:15:00,39.7,25.3,30.23,North,5,4.0,4.0,56,0.00,,---,0.00,VWS V14.00,2013-02-17 12:15:00,
2013-02-17 07:20:00,39.7,24.9,30.23,NNW,338,3.0,5.0,55,0.00,,---,0.00,VWS V14.00,2013-02-17 12:20:00,
2013-02-17 07:25:00,39.8,25.4,30.23,NNW,344,6.0,7.0,56,0.00,,---,0.00,VWS V14.00,2013-02-17 12:25:00,
2013-02-17 07:30:00,39.9,25.5,30.23,NNW,343,0.0,5.0,56,0.00,,---,0.00,VWS V14.00,2013-02-17 12:30:00,
2013-02-17 07:35:00,40.1,25.2,30.23,North,350,0.0,6.0,55,0.00,,---,0.00,VWS V14.00,2013-02-17 12:35:00,
2013-02-17 07:40:00,40.3,25.4,30.24,North,5,5.0,6.0,55,0.00,,---,0.00,VWS V14.00,2013-02-17 12:40:00,
2013-02-17 07:45:00,40.6,26.1,30.24,NNW,348,1.0,4.0,56,0.00,,---,0.00,VWS V14.00,2013-02-17 12:45:00,
2013-02-17 07:50:00,40.9,26.0,30.24,NNW,340,3.0,8.0,55,0.00,,---,0.00,VWS V14.00,2013-02-17 12:50:00,
2013-02-17 07:55:00,41.2,25.8,30.25,NNW,338,4.0,7.0,54,0.00,,---,0.00,VWS V14.00,2013-02-17 12:55:00,
2013-02-17 08:00:00,41.6,25.3,30.25,NNW,329,0.0,11.0,52,0.00,,---,0.00,VWS V14.00,2013-02-17 13:00:00,
2013-02-17 08:05:00,42.0,25.2,30.25,NNW,344,0.0,9.0,51,0.00,,---,0.00,VWS V14.00,2013-02-17 13:05:00,
2013-02-17 08:10:00,42.4,25.1,30.25,North,355,0.0,10.0,50,0.00,,---,0.00,VWS V14.00,2013-02-17 13:10:00,
2013-02-17 08:15:00,42.9,26.5,30.25,North,11,7.0,8.0,52,0.00,,---,0.00,VWS V14.00,2013-02-17 13:15:00,
2013-02-17 08:20:00,43.3,24.9,30.25,North,350,5.0,10.0,48,0.00,,---,0.00,VWS V14.00,2013-02-17 13:20:00,
2013-02-17 08:25:00,43.6,25.7,30.26,North,5,1.0,8.0,49,0.00,,---,0.00,VWS V14.00,2013-02-17 13:25:00,
2013-02-17 08:30:00,44.0,25.6,30.26,NNW,346,0.0,9.0,48,0.00,,---,0.00,VWS V14.00,2013-02-17 13:30:00,
2013-02-17 08:35:00,44.4,24.9,30.26,North,360,8.0,12.0,46,0.00,,---,0.00,VWS V14.00,2013-02-17 13:35:00,
2013-02-17 08:40:00,44.7,25.2,30.26,NNW,338,8.0,10.0,46,0.00,,---,0.00,VWS V14.00,2013-02-17 13:40:00,
2013-02-17 08:45:00,45.1,25.6,30.26,NNE,13,1.0,10.0,46,0.00,,---,0.00,VWS V14.00,2013-02-17 13:45:00,
2013-02-17 08:50:00,45.2,24.6,30.27,NNE,13,5.0,16.0,44,0.00,,---,0.00,VWS V14.00,2013-02-17 13:50:00,
2013-02-17 08:55:00,45.6,25.5,30.27,North,10,11.0,14.0,45,0.00,,---,0.00,VWS V14.00,2013-02-17 13:55:00,
2013-02-17 09:00:00,45.9,24.7,30.27,North,351,10.0,14.0,43,0.00,,---,0.00,VWS V14.00,2013-02-17 14:00:00,
2013-02-17 09:05:00,45.9,24.7,30.27,North,5,6.0,18.0,43,0.00,,---,0.00,VWS V14.00,2013-02-17 14:05:00,
2013-02-17 09:10:00,46.1,23.7,30.27,North,351,8.0,14.0,41,0.00,,---,0.00,VWS V14.00,2013-02-17 14:10:00,
2013-02-17 09:15:00,46.4,24.0,30.28,NNW,347,6.0,12.0,41,0.00,,---,0.00,VWS V14.00,2013-02-17 14:15:00,
2013-02-17 09:20:00,47.0,24.5,30.28,North,350,9.0,12.0,41,0.00,,---,0.00,VWS V14.00,2013-02-17 14:20:00,
2013-02-17 09:25:00,47.4,24.9,30.28,NNW,334,2.0,13.0,41,0.00,,---,0.00,VWS V14.00,2013-02-17 14:25:00,
2013-02-17 09:30:00,47.7,23.4,30.28,NW,323,5.0,15.0,38,0.00,,---,0.00,VWS V14.00,2013-02-17 14:30:00,
2013-02-17 09:35:00,48.1,24.3,30.29,NNE,13,8.0,11.0,39,0.00,,---,0.00,VWS V14.00,2013-02-17 14:35:00,
2013-02-17 09:40:00,48.3,24.5,30.29,NNW,340,5.0,11.0,39,0.00,,---,0.00,VWS V14.00,2013-02-17 14:40:00,
2013-02-17 09:45:00,48.5,23.4,30.29,NW,312,8.0,15.0,37,0.00,,---,0.00,VWS V14.00,2013-02-17 14:45:00,
2013-02-17 09:50:00,48.5,23.4,30.29,NNE,13,14.0,14.0,37,0.00,,---,0.00,VWS V14.00,2013-02-17 14:50:00,
2013-02-17 09:55:00,48.5,22.8,30.29,North,11,4.0,16.0,36,0.00,,---,0.00,VWS V14.00,2013-02-17 14:55:00,
2013-02-17 10:00:00,49.0,23.9,30.29,North,360,8.0,18.0,37,0.00,,---,0.00,VWS V14.00,2013-02-17 15:00:00,
2013-02-17 10:05:00,49.2,24.1,30.29,NE,39,11.0,11.0,37,0.00,,---,0.00,VWS V14.00,2013-02-17 15:05:00,
2013-02-17 10:10:00,49.5,23.7,30.29,NNE,21,10.0,15.0,36,0.00,,---,0.00,VWS V14.00,2013-02-17 15:10:00,
2013-02-17 10:15:00,49.8,24.6,30.30,NNE,15,11.0,18.0,37,0.00,,---,0.00,VWS V14.00,2013-02-17 15:15:00,
2013-02-17 10:20:00,50.0,24.1,30.30,North,9,7.0,16.0,36,0.00,,---,0.00,VWS V14.00,2013-02-17 15:20:00,
2013-02-17 10:25:00,49.9,24.7,30.30,NNW,329,10.0,16.0,37,0.00,,---,0.00,VWS V14.00,2013-02-17 15:25:00,
2013-02-17 10:30:00,49.9,24.7,30.29,NNE,19,0.0,15.0,37,0.00,,---,0.00,VWS V14.00,2013-02-17 15:30:00,
2013-02-17 10:35:00,50.1,24.9,30.29,NNE,29,7.0,18.0,37,0.00,,---,0.00,VWS V14.00,2013-02-17 15:35:00,
2013-02-17 10:40:00,50.1,26.1,30.30,NNW,331,4.0,11.0,39,0.00,,---,0.00,VWS V14.00,2013-02-17 15:40:00,
2013-02-17 10:45:00,50.5,25.2,30.30,NW,321,6.0,11.0,37,0.00,,---,0.00,VWS V14.00,2013-02-17 15:45:00,
2013-02-17 10:50:00,50.5,25.2,30.29,WNW,294,5.0,15.0,37,0.00,,---,0.00,VWS V14.00,2013-02-17 15:50:00,
2013-02-17 10:55:00,50.8,25.5,30.29,NNE,15,9.0,16.0,37,0.00,,---,0.00,VWS V14.00,2013-02-17 15:55:00,
2013-02-17 11:00:00,50.9,25.6,30.29,NNE,13,8.0,13.0,37,0.00,,---,0.00,VWS V14.00,2013-02-17 16:00:00,
2013-02-17 11:05:00,51.2,27.7,30.29,NW,326,4.0,11.0,40,0.00,,---,0.00,VWS V14.00,2013-02-17 16:05:00,
2013-02-17 11:10:00,51.9,26.5,30.29,WNW,300,5.0,14.0,37,0.00,,---,0.00,VWS V14.00,2013-02-17 16:10:00,
2013-02-17 11:15:00,51.7,26.3,30.29,NW,324,6.0,16.0,37,0.00,,---,0.00,VWS V14.00,2013-02-17 16:15:00,
2013-02-17 11:20:00,51.8,27.0,30.29,NW,323,11.0,18.0,38,0.00,,---,0.00,VWS V14.00,2013-02-17 16:20:00,
2013-02-17 11:25:00,51.9,26.5,30.29,WNW,294,5.0,15.0,37,0.00,,---,0.00,VWS V14.00,2013-02-17 16:25:00,
2013-02-17 11:30:00,52.1,27.3,30.29,NNW,346,8.0,13.0,38,0.00,,---,0.00,VWS V14.00,2013-02-17 16:30:00,
2013-02-17 11:35:00,51.8,25.7,30.29,NNW,336,10.0,15.0,36,0.00,,---,0.00,VWS V14.00,2013-02-17 16:35:00,
2013-02-17 11:40:00,52.1,25.3,30.29,NW,313,5.0,13.0,35,0.00,,---,0.00,VWS V14.00,2013-02-17 16:40:00,
2013-02-17 11:45:00,52.5,27.0,30.28,NW,323,2.0,10.0,37,0.00,,---,0.00,VWS V14.00,2013-02-17 16:45:00,
2013-02-17 11:50:00,52.7,26.5,30.29,NNW,344,6.0,11.0,36,0.00,,---,0.00,VWS V14.00,2013-02-17 16:50:00,
2013-02-17 11:55:00,52.5,27.0,30.29,West,279,6.0,15.0,37,0.00,,---,0.00,VWS V14.00,2013-02-17 16:55:00,
2013-02-17 12:00:00,52.9,25.3,30.30,North,355,11.0,16.0,34,0.00,,---,0.00,VWS V14.00,2013-02-17 17:00:00,
2013-02-17 12:05:00,52.9,26.0,30.29,NNW,336,4.0,11.0,35,0.00,,---,0.00,VWS V14.00,2013-02-17 17:05:00,
2013-02-17 12:10:00,52.9,26.0,30.28,WNW,296,9.0,10.0,35,0.00,,---,0.00,VWS V14.00,2013-02-17 17:10:00,
2013-02-17 12:15:00,53.5,25.1,30.28,NW,315,3.0,13.0,33,0.00,,---,0.00,VWS V14.00,2013-02-17 17:15:00,
2013-02-17 12:20:00,53.7,27.4,30.28,West,277,5.0,12.0,36,0.00,,---,0.00,VWS V14.00,2013-02-17 17:20:00,
2013-02-17 12:25:00,54.3,27.2,30.28,North,9,5.0,9.0,35,0.00,,---,0.00,VWS V14.00,2013-02-17 17:25:00,
2013-02-17 12:30:00,54.7,26.9,30.28,NW,311,4.0,11.0,34,0.00,,---,0.00,VWS V14.00,2013-02-17 17:30:00,
2013-02-17 12:35:00,54.7,26.9,30.28,NW,323,5.0,14.0,34,0.00,,---,0.00,VWS V14.00,2013-02-17 17:35:00,
2013-02-17 12:40:00,54.5,26.7,30.28,North,351,5.0,9.0,34,0.00,,---,0.00,VWS V14.00,2013-02-17 17:40:00,
2013-02-17 12:45:00,54.8,26.3,30.28,North,360,2.0,12.0,33,0.00,,---,0.00,VWS V14.00,2013-02-17 17:45:00,
2013-02-17 12:50:00,54.7,26.9,30.27,NNW,347,9.0,13.0,34,0.00,,---,0.00,VWS V14.00,2013-02-17 17:50:00,
2013-02-17 12:55:00,54.9,27.1,30.27,NNE,23,12.0,15.0,34,0.00,,---,0.00,VWS V14.00,2013-02-17 17:55:00,
2013-02-17 13:00:00,54.9,27.8,30.27,WNW,302,6.0,11.0,35,0.00,,---,0.00,VWS V14.00,2013-02-17 18:00:00,
2013-02-17 13:05:00,55.0,25.7,30.27,NNE,15,7.0,13.0,32,0.00,,---,0.00,VWS V14.00,2013-02-17 18:05:00,
2013-02-17 13:10:00,55.1,25.8,30.27,NW,313,11.0,13.0,32,0.00,,---,0.00,VWS V14.00,2013-02-17 18:10:00,
2013-02-17 13:15:00,55.0,27.2,30.26,NE,34,4.0,9.0,34,0.00,,---,0.00,VWS V14.00,2013-02-17 18:15:00,
2013-02-17 13:20:00,55.2,25.9,30.26,NW,318,5.0,18.0,32,0.00,,---,0.00,VWS V14.00,2013-02-17 18:20:00,
2013-02-17 13:25:00,55.4,26.8,30.26,NNW,342,4.0,8.0,33,0.00,,---,0.00,VWS V14.00,2013-02-17 18:25:00,
2013-02-17 13:30:00,55.5,26.9,30.26,North,355,10.0,11.0,33,0.00,,---,0.00,VWS V14.00,2013-02-17 18:30:00,
2013-02-17 13:35:00,55.9,26.5,30.25,NNE,21,4.0,11.0,32,0.00,,---,0.00,VWS V14.00,2013-02-17 18:35:00,
2013-02-17 13:40:00,56.4,26.9,30.25,NNW,346,5.0,13.0,32,0.00,,---,0.00,VWS V14.00,2013-02-17 18:40:00,
2013-02-17 13:45:00,56.3,26.1,30.25,NNW,347,5.0,13.0,31,0.00,,---,0.00,VWS V14.00,2013-02-17 18:45:00,
2013-02-17 13:50:00,56.1,26.7,30.25,NE,44,2.0,7.0,32,0.00,,---,0.00,VWS V14.00,2013-02-17 18:50:00,
2013-02-17 13:55:00,56.2,27.5,30.24,NNE,20,5.0,9.0,33,0.00,,---,0.00,VWS V14.00,2013-02-17 18:55:00,
2013-02-17 14:00:00,57.0,27.5,30.24,NNE,24,1.0,11.0,32,0.00,,---,0.00,VWS V14.00,2013-02-17 19:00:00,
2013-02-17 14:05:00,57.2,25.2,30.24,North,355,1.0,11.0,29,0.00,,---,0.00,VWS V14.00,2013-02-17 19:05:00,
2013-02-17 14:10:00,57.1,26.0,30.24,WNW,300,9.0,11.0,30,0.00,,---,0.00,VWS V14.00,2013-02-17 19:10:00,
2013-02-17 14:15:00,57.0,25.9,30.24,NW,320,1.0,13.0,30,0.00,,---,0.00,VWS V14.00,2013-02-17 19:15:00,
2013-02-17 14:20:00,56.9,25.0,30.24,NW,326,0.0,9.0,29,0.00,,---,0.00,VWS V14.00,2013-02-17 19:20:00,
2013-02-17 14:25:00,57.1,24.3,30.24,NNW,342,1.0,9.0,28,0.00,,---,0.00,VWS V14.00,2013-02-17 19:25:00,
2013-02-17 14:30:00,57.1,24.3,30.24,NNE,14,6.0,15.0,28,0.00,,---,0.00,VWS V14.00,2013-02-17 19:30:00,
2013-02-17 14:35:00,57.0,25.1,30.24,NW,305,7.0,12.0,29,0.00,,---,0.00,VWS V14.00,2013-02-17 19:35:00,
2013-02-17 14:40:00,57.2,25.2,30.24,NW,304,5.0,9.0,29,0.00,,---,0.00,VWS V14.00,2013-02-17 19:40:00,
2013-02-17 14:45:00,57.3,26.2,30.24,NNW,328,0.0,9.0,30,0.00,,---,0.00,VWS V14.00,2013-02-17 19:45:00,
2013-02-17 14:50:00,57.7,24.8,30.24,WNW,301,10.0,11.0,28,0.00,,---,0.00,VWS V14.00,2013-02-17 19:50:00,
2013-02-17 14:55:00,57.7,23.1,30.24,NNW,343,6.0,9.0,26,0.00,,---,0.00,VWS V14.00,2013-02-17 19:55:00,
2013-02-17 15:00:00,57.5,23.8,30.24,WNW,296,1.0,11.0,27,0.00,,---,0.00,VWS V14.00,2013-02-17 20:00:00,
2013-02-17 15:05:00,57.6,24.8,30.23,WNW,298,0.0,6.0,28,0.00,,---,0.00,VWS V14.00,2013-02-17 20:05:00,
2013-02-17 15:10:00,57.9,23.2,30.24,NE,53,9.0,11.0,26,0.00,,---,0.00,VWS V14.00,2013-02-17 20:10:00,
2013-02-17 15:15:00,57.6,23.0,30.24,North,360,5.0,12.0,26,0.00,,---,0.00,VWS V14.00,2013-02-17 20:15:00,
2013-02-17 15:20:00,57.2,23.5,30.23,WNW,300,4.0,10.0,27,0.00,,---,0.00,VWS V14.00,2013-02-17 20:20:00,
2013-02-17 15:25:00,57.3,22.7,30.23,NNE,15,0.0,8.0,26,0.00,,---,0.00,VWS V14.00,2013-02-17 20:25:00,
2013-02-17 15:30:00,57.6,23.9,30.23,NNW,329,6.0,13.0,27,0.00,,---,0.00,VWS V14.00,2013-02-17 20:30:00,
2013-02-17 15:35:00,57.2,23.5,30.23,WNW,300,7.0,10.0,27,0.00,,---,0.00,VWS V14.00,2013-02-17 20:35:00,
2013-02-17 15:40:00,57.1,22.6,30.23,WNW,292,0.0,8.0,26,0.00,,---,0.00,VWS V14.00,2013-02-17 20:40:00,
2013-02-17 15:45:00,57.4,22.8,30.23,North,5,0.0,7.0,26,0.00,,---,0.00,VWS V14.00,2013-02-17 20:45:00,
2013-02-17 15:50:00,57.4,23.7,30.23,North,360,0.0,5.0,27,0.00,,---,0.00,VWS V14.00,2013-02-17 20:50:00,
2013-02-17 15:55:00,57.2,21.7,30.23,WNW,296,9.0,11.0,25,0.00,,---,0.00,VWS V14.00,2013-02-17 20:55:00,
2013-02-17 16:00:00,57.0,22.5,30.23,NW,315,0.0,8.0,26,0.00,,---,0.00,VWS V14.00,2013-02-17 21:00:00,
2013-02-17 16:05:00,57.2,22.6,30.23,North,349,1.0,10.0,26,0.00,,---,0.00,VWS V14.00,2013-02-17 21:05:00,
2013-02-17 16:10:00,57.5,22.9,30.23,NW,326,0.0,6.0,26,0.00,,---,0.00,VWS V14.00,2013-02-17 21:10:00,
2013-02-17 16:15:00,57.7,23.1,30.23,WNW,302,0.0,9.0,26,0.00,,---,0.00,VWS V14.00,2013-02-17 21:15:00,
2013-02-17 16:20:00,57.5,21.0,30.23,NW,323,1.0,9.0,24,0.00,,---,0.00,VWS V14.00,2013-02-17 21:20:00,
2013-02-17 16:25:00,57.2,21.7,30.24,NW,325,0.0,9.0,25,0.00,,---,0.00,VWS V14.00,2013-02-17 21:25:00,
2013-02-17 16:30:00,57.3,22.7,30.24,WNW,286,5.0,7.0,26,0.00,,---,0.00,VWS V14.00,2013-02-17 21:30:00,
2013-02-17 16:35:00,57.7,22.1,30.24,North,360,0.0,8.0,25,0.00,,---,0.00,VWS V14.00,2013-02-17 21:35:00,
2013-02-17 16:40:00,57.5,22.9,30.24,NW,324,0.0,10.0,26,0.00,,---,0.00,VWS V14.00,2013-02-17 21:40:00,
2013-02-17 16:45:00,56.9,22.4,30.24,NW,323,2.0,7.0,26,0.00,,---,0.00,VWS V14.00,2013-02-17 21:45:00,
2013-02-17 16:50:00,56.3,21.0,30.24,NNE,17,0.0,11.0,25,0.00,,---,0.00,VWS V14.00,2013-02-17 21:50:00,
2013-02-17 16:55:00,56.0,21.6,30.23,North,351,0.0,7.0,26,0.00,,---,0.00,VWS V14.00,2013-02-17 21:55:00,
2013-02-17 17:00:00,55.9,21.5,30.23,NE,34,0.0,7.0,26,0.00,,---,0.00,VWS V14.00,2013-02-17 22:00:00,
2013-02-17 17:05:00,55.8,22.3,30.24,NW,311,6.0,7.0,27,0.00,,---,0.00,VWS V14.00,2013-02-17 22:05:00,
2013-02-17 17:10:00,55.6,22.2,30.24,WNW,296,0.0,9.0,27,0.00,,---,0.00,VWS V14.00,2013-02-17 22:10:00,
2013-02-17 17:15:00,55.4,22.0,30.24,NW,308,0.0,2.0,27,0.00,,---,0.00,VWS V14.00,2013-02-17 22:15:00,
2013-02-17 17:20:00,55.3,21.9,30.24,NE,34,0.0,7.0,27,0.00,,---,0.00,VWS V14.00,2013-02-17 22:20:00,
2013-02-17 17:25:00,55.3,21.9,30.24,NE,34,0.0,0.0,27,0.00,,---,0.00,VWS V14.00,2013-02-17 22:25:00,
2013-02-17 17:30:00,55.2,21.8,30.24,North,355,1.0,6.0,27,0.00,,---,0.00,VWS V14.00,2013-02-17 22:30:00,
2013-02-17 17:35:00,55.0,21.6,30.24,North,5,0.0,7.0,27,0.00,,---,0.00,VWS V14.00,2013-02-17 22:35:00,
2013-02-17 17:40:00,54.8,22.3,30.25,North,5,0.0,6.0,28,0.00,,---,0.00,VWS V14.00,2013-02-17 22:40:00,
2013-02-17 17:45:00,54.6,22.2,30.25,North,351,2.0,5.0,28,0.00,,---,0.00,VWS V14.00,2013-02-17 22:45:00,
2013-02-17 17:50:00,54.5,22.9,30.25,NNW,339,0.0,6.0,29,0.00,,---,0.00,VWS V14.00,2013-02-17 22:50:00,
2013-02-17 17:55:00,54.3,21.9,30.25,North,11,5.0,6.0,28,0.00,,---,0.00,VWS V14.00,2013-02-17 22:55:00,
2013-02-17 18:00:00,54.2,22.6,30.25,North,360,0.0,6.0,29,0.00,,---,0.00,VWS V14.00,2013-02-17 23:00:00,
2013-02-17 18:05:00,53.9,23.2,30.25,North,360,0.0,0.0,30,0.00,,---,0.00,VWS V14.00,2013-02-17 23:05:00,
2013-02-17 18:10:00,53.6,23.7,30.25,North,360,0.0,0.0,31,0.00,,---,0.00,VWS V14.00,2013-02-17 23:10:00,
2013-02-17 18:15:00,53.3,25.0,30.25,North,360,0.0,0.0,33,0.00,,---,0.00,VWS V14.00,2013-02-17 23:15:00,
2013-02-17 18:20:00,52.9,24.6,30.25,North,360,0.0,0.0,33,0.00,,---,0.00,VWS V14.00,2013-02-17 23:20:00,
2013-02-17 18:25:00,52.6,25.8,30.25,North,360,0.0,0.0,35,0.00,,---,0.00,VWS V14.00,2013-02-17 23:25:00,
2013-02-17 18:30:00,52.2,26.7,30.25,North,360,0.0,0.0,37,0.00,,---,0.00,VWS V14.00,2013-02-17 23:30:00,
2013-02-17 18:35:00,51.8,26.4,30.25,North,360,0.0,0.0,37,0.00,,---,0.00,VWS V14.00,2013-02-17 23:35:00,
2013-02-17 18:40:00,51.3,27.2,30.25,North,360,0.0,0.0,39,0.00,,---,0.00,VWS V14.00,2013-02-17 23:40:00,
2013-02-17 18:45:00,50.9,28.1,30.25,North,360,0.0,0.0,41,0.00,,---,0.00,VWS V14.00,2013-02-17 23:45:00,
2013-02-17 18:50:00,50.3,29.2,30.26,North,360,0.0,0.0,44,0.00,,---,0.00,VWS V14.00,2013-02-17 23:50:00,
2013-02-17 18:55:00,49.8,30.4,30.26,North,360,0.0,0.0,47,0.00,,---,0.00,VWS V14.00,2013-02-17 23:55:00,
2013-02-17 19:00:00,49.4,30.5,30.26,North,360,0.0,0.0,48,0.00,,---,0.00,VWS V14.00,2013-02-18 00:00:00,
2013-02-17 19:05:00,48.8,31.0,30.26,North,360,0.0,0.0,50,0.00,,---,0.00,VWS V14.00,2013-02-18 00:05:00,
2013-02-17 19:10:00,48.3,31.0,30.26,North,360,0.0,0.0,51,0.00,,---,0.00,VWS V14.00,2013-02-18 00:10:00,
2013-02-17 19:15:00,47.9,31.6,30.26,North,360,0.0,0.0,53,0.00,,---,0.00,VWS V14.00,2013-02-18 00:15:00,
2013-02-17 19:20:00,47.4,31.1,30.26,North,360,0.0,0.0,53,0.00,,---,0.00,VWS V14.00,2013-02-18 00:20:00,
2013-02-17 19:25:00,46.9,31.6,30.26,North,360,0.0,0.0,55,0.00,,---,0.00,VWS V14.00,2013-02-18 00:25:00,
2013-02-17 19:30:00,46.5,32.1,30.27,North,360,0.0,0.0,57,0.00,,---,0.00,VWS V14.00,2013-02-18 00:30:00,
2013-02-17 19:35:00,46.1,32.2,30.26,North,360,0.0,0.0,58,0.00,,---,0.00,VWS V14.00,2013-02-18 00:35:00,
2013-02-17 19:40:00,45.9,32.4,30.27,North,360,0.0,0.0,59,0.00,,---,0.00,VWS V14.00,2013-02-18 00:40:00,
2013-02-17 19:45:00,45.6,32.9,30.27,North,360,0.0,0.0,61,0.00,,---,0.00,VWS V14.00,2013-02-18 00:45:00,
2013-02-17 19:50:00,45.3,32.7,30.27,North,360,0.0,0.0,61,0.00,,---,0.00,VWS V14.00,2013-02-18 00:50:00,
2013-02-17 19:55:00,45.0,32.8,30.27,North,360,0.0,0.0,62,0.00,,---,0.00,VWS V14.00,2013-02-18 00:55:00,
2013-02-17 20:00:00,44.7,32.9,30.27,North,360,0.0,0.0,63,0.00,,---,0.00,VWS V14.00,2013-02-18 01:00:00,
2013-02-17 20:05:00,44.4,33.4,30.27,North,360,0.0,0.0,65,0.00,,---,0.00,VWS V14.00,2013-02-18 01:05:00,
2013-02-17 20:10:00,44.2,33.6,30.28,North,360,0.0,0.0,66,0.00,,---,0.00,VWS V14.00,2013-02-18 01:10:00,
2013-02-17 20:15:00,43.9,33.3,30.28,North,360,0.0,0.0,66,0.00,,---,0.00,VWS V14.00,2013-02-18 01:15:00,
2013-02-17 20:20:00,43.6,31.9,30.28,North,360,0.0,0.0,63,0.00,,---,0.00,VWS V14.00,2013-02-18 01:20:00,
2013-02-17 20:25:00,43.4,30.9,30.28,North,360,0.0,0.0,61,0.00,,---,0.00,VWS V14.00,2013-02-18 01:25:00,
2013-02-17 20:30:00,43.3,30.4,30.28,North,360,0.0,0.0,60,0.00,,---,0.00,VWS V14.00,2013-02-18 01:30:00,
2013-02-17 20:35:00,43.2,30.7,30.28,North,360,0.0,0.0,61,0.00,,---,0.00,VWS V14.00,2013-02-18 01:35:00,
2013-02-17 20:40:00,43.4,30.9,30.28,North,360,0.0,0.0,61,0.00,,---,0.00,VWS V14.00,2013-02-18 01:40:00,
2013-02-17 20:45:00,43.4,31.7,30.28,North,360,0.0,0.0,63,0.00,,---,0.00,VWS V14.00,2013-02-18 01:45:00,
2013-02-17 20:50:00,43.3,31.2,30.28,North,360,0.0,0.0,62,0.00,,---,0.00,VWS V14.00,2013-02-18 01:50:00,
2013-02-17 20:55:00,43.2,31.1,30.28,North,360,0.0,0.0,62,0.00,,---,0.00,VWS V14.00,2013-02-18 01:55:00,
2013-02-17 21:00:00,43.2,30.7,30.28,North,360,0.0,0.0,61,0.00,,---,0.00,VWS V14.00,2013-02-18 02:00:00,
2013-02-17 21:05:00,43.1,30.6,30.28,North,360,0.0,0.0,61,0.00,,---,0.00,VWS V14.00,2013-02-18 02:05:00,
2013-02-17 21:10:00,42.9,29.6,30.28,North,360,0.0,0.0,59,0.00,,---,0.00,VWS V14.00,2013-02-18 02:10:00,
2013-02-17 21:15:00,42.8,29.9,30.29,North,360,0.0,0.0,60,0.00,,---,0.00,VWS V14.00,2013-02-18 02:15:00,
2013-02-17 21:20:00,42.8,29.9,30.29,North,360,0.0,0.0,60,0.00,,---,0.00,VWS V14.00,2013-02-18 02:20:00,
2013-02-17 21:25:00,42.8,29.9,30.29,North,360,0.0,0.0,60,0.00,,---,0.00,VWS V14.00,2013-02-18 02:25:00,
2013-02-17 21:30:00,42.8,30.3,30.29,North,360,0.0,0.0,61,0.00,,---,0.00,VWS V14.00,2013-02-18 02:30:00,
2013-02-17 21:35:00,42.9,31.2,30.30,North,360,0.0,0.0,63,0.00,,---,0.00,VWS V14.00,2013-02-18 02:35:00,
2013-02-17 21:40:00,42.9,30.8,30.30,North,360,0.0,0.0,62,0.00,,---,0.00,VWS V14.00,2013-02-18 02:40:00,
2013-02-17 21:45:00,42.8,31.1,30.29,North,360,0.0,0.0,63,0.00,,---,0.00,VWS V14.00,2013-02-18 02:45:00,
2013-02-17 21:50:00,42.7,31.0,30.30,North,360,0.0,0.0,63,0.00,,---,0.00,VWS V14.00,2013-02-18 02:50:00,
2013-02-17 21:55:00,42.5,31.6,30.30,North,360,0.0,0.0,65,0.00,,---,0.00,VWS V14.00,2013-02-18 02:55:00,
2013-02-17 22:00:00,42.3,31.0,30.30,North,360,0.0,0.0,64,0.00,,---,0.00,VWS V14.00,2013-02-18 03:00:00,
2013-02-17 22:05:00,42.0,30.7,30.30,North,360,0.0,0.0,64,0.00,,---,0.00,VWS V14.00,2013-02-18 03:05:00,
2013-02-17 22:10:00,41.7,30.0,30.30,North,360,0.0,0.0,63,0.00,,---,0.00,VWS V14.00,2013-02-18 03:10:00,
2013-02-17 22:15:00,41.5,29.9,30.30,North,360,0.0,0.0,63,0.00,,---,0.00,VWS V14.00,2013-02-18 03:15:00,
2013-02-17 22:20:00,41.3,30.1,30.30,North,360,0.0,0.0,64,0.00,,---,0.00,VWS V14.00,2013-02-18 03:20:00,
2013-02-17 22:25:00,41.3,31.2,30.30,North,360,0.0,0.0,67,0.00,,---,0.00,VWS V14.00,2013-02-18 03:25:00,
2013-02-17 22:30:00,41.2,31.1,30.31,North,360,0.0,0.0,67,0.00,,---,0.00,VWS V14.00,2013-02-18 03:30:00,
2013-02-17 22:35:00,41.1,30.6,30.31,North,360,0.0,0.0,66,0.00,,---,0.00,VWS V14.00,2013-02-18 03:35:00,
2013-02-17 22:40:00,41.0,29.8,30.31,North,360,0.0,0.0,64,0.00,,---,0.00,VWS V14.00,2013-02-18 03:40:00,
2013-02-17 22:45:00,40.8,29.2,30.31,North,360,0.0,0.0,63,0.00,,---,0.00,VWS V14.00,2013-02-18 03:45:00,
2013-02-17 22:50:00,40.7,29.1,30.31,North,360,0.0,0.0,63,0.00,,---,0.00,VWS V14.00,2013-02-18 03:50:00,
2013-02-17 22:55:00,40.7,29.1,30.31,North,360,0.0,0.0,63,0.00,,---,0.00,VWS V14.00,2013-02-18 03:55:00,
2013-02-17 23:00:00,40.7,28.7,30.31,North,360,0.0,0.0,62,0.00,,---,0.00,VWS V14.00,2013-02-18 04:00:00,
2013-02-17 23:05:00,40.7,28.7,30.31,North,360,0.0,0.0,62,0.00,,---,0.00,VWS V14.00,2013-02-18 04:05:00,
2013-02-17 23:10:00,40.7,29.9,30.31,North,360,0.0,0.0,65,0.00,,---,0.00,VWS V14.00,2013-02-18 04:10:00,
2013-02-17 23:15:00,40.5,28.9,30.31,North,360,0.0,0.0,63,0.00,,---,0.00,VWS V14.00,2013-02-18 04:15:00,
2013-02-17 23:20:00,40.4,28.8,30.31,North,360,0.0,0.0,63,0.00,,---,0.00,VWS V14.00,2013-02-18 04:20:00,
2013-02-17 23:25:00,40.2,29.8,30.31,North,360,0.0,0.0,66,0.00,,---,0.00,VWS V14.00,2013-02-18 04:25:00,
2013-02-17 23:30:00,40.1,29.7,30.31,North,360,0.0,0.0,66,0.00,,---,0.00,VWS V14.00,2013-02-18 04:30:00,
2013-02-17 23:35:00,40.0,30.3,30.32,North,360,0.0,0.0,68,0.00,,---,0.00,VWS V14.00,2013-02-18 04:35:00,
2013-02-17 23:40:00,39.8,30.1,30.31,North,360,0.0,0.0,68,0.00,,---,0.00,VWS V14.00,2013-02-18 04:40:00,
2013-02-17 23:45:00,39.7,30.4,30.31,North,360,0.0,0.0,69,0.00,,---,0.00,VWS V14.00,2013-02-18 04:45:00,
2013-02-17 23:50:00,39.5,30.2,30.31,North,360,0.0,0.0,69,0.00,,---,0.00,VWS V14.00,2013-02-18 04:50:00,
2013-02-17 23:55:00,39.5,30.2,30.31,North,360,0.0,0.0,69,0.00,,---,0.00,VWS V14.00,2013-02-18 04:55:00,